Time,TemperatureF,DewpointF,PressureIn,WindDirection,WindDirectionDegrees,WindSpeedMPH,WindSpeedGustMPH,Humidity,HourlyPrecipIn,Conditions,Clouds,dailyrainin,SoftwareType,DateUTC
2013-04-30 00:02:00,68.4,50.6,30.09,SSE,160,2.7,3.1,53,0.00,,---,0.00,VWS V14.01,2013-04-29 22:02:00,
2013-04-30 00:07:00,68.2,50.4,30.09,SSE,160,2.7,3.1,53,0.00,,---,0.00,VWS V14.01,2013-04-29 22:07:00,
2013-04-30 00:12:00,67.8,50.6,30.09,SSE,160,0.0,3.1,54,0.00,,---,0.00,VWS V14.01,2013-04-29 22:12:00,
2013-04-30 00:17:00,67.8,50.6,30.09,SSE,160,3.1,3.6,54,0.00,,---,0.00,VWS V14.01,2013-04-29 22:17:00,
2013-04-30 00:22:00,67.6,50.4,30.09,SSE,160,0.0,2.7,54,0.00,,---,0.00,VWS V14.01,2013-04-29 22:22:00,
2013-04-30 00:27:00,67.5,50.8,30.12,SSE,160,3.1,4.0,55,0.00,,---,0.00,VWS V14.01,2013-04-29 22:27:00,
2013-04-30 00:32:00,67.1,50.9,30.12,SSE,160,2.7,3.1,56,0.00,,---,0.00,VWS V14.01,2013-04-29 22:32:00,
2013-04-30 00:37:00,66.9,51.2,30.12,SSE,160,2.7,4.0,57,0.00,,---,0.00,VWS V14.01,2013-04-29 22:37:00,
2013-04-30 00:42:00,67.1,51.4,30.09,SSE,160,0.0,2.7,57,0.00,,---,0.00,VWS V14.01,2013-04-29 22:42:00,
2013-04-30 00:47:00,67.1,51.4,30.09,SSE,160,0.0,0.0,57,0.00,,---,0.00,VWS V14.01,2013-04-29 22:47:00,
2013-04-30 00:52:00,67.1,51.4,30.09,SSE,160,0.0,0.0,57,0.00,,---,0.00,VWS V14.01,2013-04-29 22:52:00,
2013-04-30 00:57:00,67.1,50.9,30.09,SSE,160,0.0,3.1,56,0.00,,---,0.00,VWS V14.01,2013-04-29 22:57:00,
2013-04-30 01:02:00,67.1,51.4,30.09,SSE,160,0.0,0.0,57,0.00,,---,0.00,VWS V14.01,2013-04-29 23:02:00,
2013-04-30 01:07:00,66.7,51.5,30.09,SSE,160,0.0,3.6,58,0.00,,---,0.00,VWS V14.01,2013-04-29 23:07:00,
2013-04-30 01:12:00,66.4,51.2,30.09,SSE,160,0.0,0.0,58,0.00,,---,0.00,VWS V14.01,2013-04-29 23:12:00,
2013-04-30 01:17:00,66.0,51.3,30.09,SSE,160,3.6,4.0,59,0.00,,---,0.00,VWS V14.01,2013-04-29 23:17:00,
2013-04-30 01:22:00,65.8,51.6,30.09,SSE,160,2.7,2.7,60,0.00,,---,0.00,VWS V14.01,2013-04-29 23:22:00,
2013-04-30 01:27:00,65.7,51.4,30.09,SSE,160,0.0,0.0,60,0.00,,---,0.00,VWS V14.01,2013-04-29 23:27:00,
2013-04-30 01:33:00,65.5,51.2,30.09,SSE,160,0.0,0.0,60,0.00,,---,0.00,VWS V14.01,2013-04-29 23:33:00,
2013-04-30 01:38:00,65.3,51.5,30.09,SSE,160,0.0,0.0,61,0.00,,---,0.00,VWS V14.01,2013-04-29 23:38:00,
2013-04-30 01:43:00,65.7,51.9,30.09,SSE,160,0.0,0.0,61,0.00,,---,0.00,VWS V14.01,2013-04-29 23:43:00,
2013-04-30 01:48:00,65.7,51.9,30.09,SSE,160,3.1,3.6,61,0.00,,---,0.00,VWS V14.01,2013-04-29 23:48:00,
2013-04-30 01:53:00,65.3,51.5,30.09,SSE,160,0.0,0.0,61,0.00,,---,0.00,VWS V14.01,2013-04-29 23:53:00,
2013-04-30 01:58:00,65.3,51.5,30.09,SSE,160,0.0,0.0,61,0.00,,---,0.00,VWS V14.01,2013-04-29 23:58:00,
2013-04-30 02:03:00,65.5,51.7,30.09,SSE,160,0.0,0.0,61,0.00,,---,0.00,VWS V14.01,2013-04-30 00:03:00,
2013-04-30 02:08:00,65.5,51.7,30.09,SSE,160,0.0,0.0,61,0.00,,---,0.00,VWS V14.01,2013-04-30 00:08:00,
2013-04-30 02:13:00,65.5,51.7,30.09,SW,229,0.0,2.7,61,0.00,,---,0.00,VWS V14.01,2013-04-30 00:13:00,
2013-04-30 02:18:00,65.7,51.9,30.09,WNW,285,4.9,6.3,61,0.00,,---,0.00,VWS V14.01,2013-04-30 00:18:00,
2013-04-30 02:23:00,64.8,51.0,30.09,WNW,285,2.7,2.7,61,0.00,,---,0.00,VWS V14.01,2013-04-30 00:23:00,
2013-04-30 02:28:00,64.2,50.9,30.09,WNW,285,0.0,2.7,62,0.00,,---,0.00,VWS V14.01,2013-04-30 00:28:00,
2013-04-30 02:33:00,64.0,51.6,30.09,WNW,285,3.1,3.6,64,0.00,,---,0.00,VWS V14.01,2013-04-30 00:33:00,
2013-04-30 02:38:00,64.4,52.0,30.09,WNW,285,0.0,3.1,64,0.00,,---,0.00,VWS V14.01,2013-04-30 00:38:00,
2013-04-30 02:43:00,64.2,51.8,30.09,West,279,0.0,3.6,64,0.00,,---,0.00,VWS V14.01,2013-04-30 00:43:00,
2013-04-30 02:48:00,64.2,51.8,30.09,WNW,294,4.5,4.5,64,0.00,,---,0.00,VWS V14.01,2013-04-30 00:48:00,
2013-04-30 02:53:00,64.0,52.0,30.09,WNW,294,0.0,3.1,65,0.00,,---,0.00,VWS V14.01,2013-04-30 00:53:00,
2013-04-30 02:59:00,64.0,52.0,30.09,NW,322,3.6,4.0,65,0.00,,---,0.00,VWS V14.01,2013-04-30 00:59:00,
2013-04-30 03:04:00,64.4,52.4,30.09,NNW,331,0.0,3.6,65,0.00,,---,0.00,VWS V14.01,2013-04-30 01:04:00,
2013-04-30 03:09:00,64.6,52.1,30.09,ESE,115,2.7,5.8,64,0.00,,---,0.00,VWS V14.01,2013-04-30 01:09:00,
2013-04-30 03:14:00,64.8,52.3,30.09,NNW,335,2.7,4.9,64,0.00,,---,0.00,VWS V14.01,2013-04-30 01:14:00,
2013-04-30 03:19:00,64.8,52.3,30.09,NW,325,4.5,5.8,64,0.00,,---,0.00,VWS V14.01,2013-04-30 01:19:00,
2013-04-30 03:24:00,64.8,52.3,30.09,NNW,342,4.9,5.8,64,0.00,,---,0.00,VWS V14.01,2013-04-30 01:24:00,
2013-04-30 03:29:00,64.8,52.3,30.09,NW,313,3.1,4.0,64,0.00,,---,0.00,VWS V14.01,2013-04-30 01:29:00,
2013-04-30 03:34:00,64.6,52.1,30.09,NW,305,0.0,3.1,64,0.00,,---,0.00,VWS V14.01,2013-04-30 01:34:00,
2013-04-30 03:39:00,64.4,52.0,30.09,NW,307,3.1,3.1,64,0.00,,---,0.00,VWS V14.01,2013-04-30 01:39:00,
2013-04-30 03:44:00,64.2,51.8,30.09,NW,307,0.0,0.0,64,0.00,,---,0.00,VWS V14.01,2013-04-30 01:44:00,
2013-04-30 03:49:00,64.0,51.6,30.09,NW,307,0.0,0.0,64,0.00,,---,0.00,VWS V14.01,2013-04-30 01:49:00,
2013-04-30 03:54:00,63.9,51.9,30.09,NW,307,3.1,3.1,65,0.00,,---,0.00,VWS V14.01,2013-04-30 01:54:00,
2013-04-30 03:59:00,63.5,51.5,30.09,NW,304,2.7,2.7,65,0.00,,---,0.00,VWS V14.01,2013-04-30 01:59:00,
2013-04-30 04:04:00,63.1,51.6,30.09,WNW,302,0.0,2.7,66,0.00,,---,0.00,VWS V14.01,2013-04-30 02:04:00,
2013-04-30 04:09:00,62.8,51.3,30.09,West,263,0.0,3.1,66,0.00,,---,0.00,VWS V14.01,2013-04-30 02:09:00,
2013-04-30 04:14:00,62.2,51.2,30.09,West,264,0.0,0.0,67,0.00,,---,0.00,VWS V14.01,2013-04-30 02:14:00,
2013-04-30 04:19:00,61.9,50.8,30.09,West,264,0.0,2.7,67,0.00,,---,0.00,VWS V14.01,2013-04-30 02:19:00,
2013-04-30 04:24:00,61.5,50.9,30.09,West,263,0.0,0.0,68,0.00,,---,0.00,VWS V14.01,2013-04-30 02:24:00,
2013-04-30 04:29:00,61.3,51.1,30.09,West,263,0.0,0.0,69,0.00,,---,0.00,VWS V14.01,2013-04-30 02:29:00,
2013-04-30 04:34:00,60.8,51.0,30.09,West,263,0.0,0.0,70,0.00,,---,0.00,VWS V14.01,2013-04-30 02:34:00,
2013-04-30 04:39:00,60.6,50.8,30.09,West,263,0.0,0.0,70,0.00,,---,0.00,VWS V14.01,2013-04-30 02:39:00,
2013-04-30 04:44:00,60.4,51.0,30.09,West,263,0.0,0.0,71,0.00,,---,0.00,VWS V14.01,2013-04-30 02:44:00,
2013-04-30 04:49:00,60.4,51.4,30.09,West,263,0.0,2.7,72,0.00,,---,0.00,VWS V14.01,2013-04-30 02:49:00,
2013-04-30 04:54:00,60.6,51.6,30.09,West,263,0.0,0.0,72,0.00,,---,0.00,VWS V14.01,2013-04-30 02:54:00,
2013-04-30 04:59:00,60.6,51.6,30.09,West,263,2.7,2.7,72,0.00,,---,0.00,VWS V14.01,2013-04-30 02:59:00,
2013-04-30 05:04:00,60.4,51.4,30.09,West,263,0.0,2.7,72,0.00,,---,0.00,VWS V14.01,2013-04-30 03:04:00,
2013-04-30 05:09:00,60.1,51.0,30.09,West,263,0.0,0.0,72,0.00,,---,0.00,VWS V14.01,2013-04-30 03:09:00,
2013-04-30 05:14:00,59.9,51.2,30.09,West,263,0.0,0.0,73,0.00,,---,0.00,VWS V14.01,2013-04-30 03:14:00,
2013-04-30 05:19:00,59.5,50.9,30.09,West,263,0.0,0.0,73,0.00,,---,0.00,VWS V14.01,2013-04-30 03:19:00,
2013-04-30 05:24:00,59.4,51.1,30.09,West,263,0.0,0.0,74,0.00,,---,0.00,VWS V14.01,2013-04-30 03:24:00,
2013-04-30 05:29:00,59.2,50.9,30.09,West,263,0.0,0.0,74,0.00,,---,0.00,VWS V14.01,2013-04-30 03:29:00,
2013-04-30 05:34:00,59.2,51.3,30.09,West,263,0.0,2.7,75,0.00,,---,0.00,VWS V14.01,2013-04-30 03:34:00,
2013-04-30 05:39:00,59.2,51.6,30.09,West,263,0.0,0.0,76,0.00,,---,0.00,VWS V14.01,2013-04-30 03:39:00,
2013-04-30 05:44:00,59.2,52.0,30.09,West,263,0.0,3.1,77,0.00,,---,0.00,VWS V14.01,2013-04-30 03:44:00,
2013-04-30 05:48:00,59.2,52.0,30.09,West,263,0.0,0.0,77,0.00,,---,0.00,VWS V14.01,2013-04-30 03:48:00,
2013-04-30 05:53:00,59.4,52.5,30.09,West,263,0.0,0.0,78,0.00,,---,0.00,VWS V14.01,2013-04-30 03:53:00,
2013-04-30 05:58:00,59.4,52.5,30.09,West,263,0.0,2.7,78,0.00,,---,0.00,VWS V14.01,2013-04-30 03:58:00,
2013-04-30 06:01:00,59.2,52.3,30.09,West,263,0.0,3.1,78,0.00,,---,0.00,VWS V14.01,2013-04-30 04:01:00,
2013-04-30 06:06:00,59.2,52.3,30.09,West,263,0.0,2.7,78,0.00,,---,0.00,VWS V14.01,2013-04-30 04:06:00,
2013-04-30 06:11:00,59.2,52.3,30.09,West,263,0.0,0.0,78,0.00,,---,0.00,VWS V14.01,2013-04-30 04:11:00,
2013-04-30 06:16:00,59.4,52.9,30.09,West,263,0.0,0.0,79,0.00,,---,0.00,VWS V14.01,2013-04-30 04:16:00,
2013-04-30 06:21:00,59.5,53.0,30.09,West,263,0.0,3.1,79,0.00,,---,0.00,VWS V14.01,2013-04-30 04:21:00,
2013-04-30 06:26:00,59.9,53.4,30.09,West,263,0.0,3.1,79,0.00,,---,0.00,VWS V14.01,2013-04-30 04:26:00,
2013-04-30 06:31:00,60.4,53.9,30.09,West,263,0.0,0.0,79,0.00,,---,0.00,VWS V14.01,2013-04-30 04:31:00,
2013-04-30 06:36:00,60.4,53.6,30.09,West,263,0.0,0.0,78,0.00,,---,0.00,VWS V14.01,2013-04-30 04:36:00,
2013-04-30 06:41:00,60.4,53.6,30.09,West,263,0.0,3.1,78,0.00,,---,0.00,VWS V14.01,2013-04-30 04:41:00,
2013-04-30 06:46:00,60.4,53.6,30.09,West,281,0.0,3.1,78,0.00,,---,0.00,VWS V14.01,2013-04-30 04:46:00,
2013-04-30 06:51:00,60.6,53.7,30.09,WNW,298,0.0,3.1,78,0.00,,---,0.00,VWS V14.01,2013-04-30 04:51:00,
2013-04-30 06:56:00,60.8,53.9,30.09,WNW,298,0.0,4.5,78,0.00,,---,0.00,VWS V14.01,2013-04-30 04:56:00,
2013-04-30 07:01:00,60.8,53.5,30.09,NNW,328,4.0,4.0,77,0.00,,---,0.00,VWS V14.01,2013-04-30 05:01:00,
2013-04-30 07:06:00,60.6,53.4,30.09,North,351,3.1,4.5,77,0.00,,---,0.00,VWS V14.01,2013-04-30 05:06:00,
2013-04-30 07:12:00,60.6,53.4,30.12,NNW,347,0.0,3.6,77,0.00,,---,0.00,VWS V14.01,2013-04-30 05:12:00,
2013-04-30 07:17:00,61.0,54.1,30.12,NW,323,2.7,4.0,78,0.00,,---,0.00,VWS V14.01,2013-04-30 05:17:00,
2013-04-30 07:22:00,61.2,54.3,30.12,NW,324,0.0,3.1,78,0.00,,---,0.00,VWS V14.01,2013-04-30 05:22:00,
2013-04-30 07:27:00,62.1,55.1,30.12,NW,323,3.1,3.6,78,0.00,,---,0.00,VWS V14.01,2013-04-30 05:27:00,
2013-04-30 07:32:00,62.8,55.5,30.12,NW,309,2.7,4.5,77,0.00,,---,0.00,VWS V14.01,2013-04-30 05:32:00,
2013-04-30 07:37:00,63.0,54.9,30.12,NW,309,0.0,3.1,75,0.00,,---,0.00,VWS V14.01,2013-04-30 05:37:00,
2013-04-30 07:42:00,63.5,55.4,30.12,NW,309,0.0,3.6,75,0.00,,---,0.00,VWS V14.01,2013-04-30 05:42:00,
2013-04-30 07:47:00,63.9,55.0,30.12,NW,309,0.0,0.0,73,0.00,,---,0.00,VWS V14.01,2013-04-30 05:47:00,
2013-04-30 07:52:00,64.2,55.0,30.12,WNW,299,4.0,4.9,72,0.00,,---,0.00,VWS V14.01,2013-04-30 05:52:00,
2013-04-30 07:57:00,64.6,55.4,30.12,WNW,298,4.0,4.9,72,0.00,,---,0.00,VWS V14.01,2013-04-30 05:57:00,
2013-04-30 08:02:00,66.4,56.7,30.12,WNW,296,4.0,4.9,71,0.00,,---,0.00,VWS V14.01,2013-04-30 06:02:00,
2013-04-30 08:07:00,67.6,57.1,30.12,WNW,290,3.6,4.5,69,0.00,,---,0.00,VWS V14.01,2013-04-30 06:07:00,
2013-04-30 08:12:00,68.5,57.2,30.12,WNW,293,4.9,4.9,67,0.00,,---,0.00,VWS V14.01,2013-04-30 06:12:00,
2013-04-30 08:17:00,69.6,57.3,30.12,WNW,286,4.5,5.4,65,0.00,,---,0.00,VWS V14.01,2013-04-30 06:17:00,
2013-04-30 08:22:00,70.5,56.9,30.12,WNW,286,4.9,5.8,62,0.00,,---,0.00,VWS V14.01,2013-04-30 06:22:00,
2013-04-30 08:27:00,70.7,55.7,30.12,NW,308,4.0,5.8,59,0.00,,---,0.00,VWS V14.01,2013-04-30 06:27:00,
2013-04-30 08:32:00,70.0,54.5,30.12,WNW,293,2.7,3.6,58,0.00,,---,0.00,VWS V14.01,2013-04-30 06:32:00,
2013-04-30 08:37:00,70.3,55.3,30.12,WNW,293,4.0,4.5,59,0.00,,---,0.00,VWS V14.01,2013-04-30 06:37:00,
2013-04-30 08:42:00,71.2,55.2,30.12,WNW,293,4.9,4.9,57,0.00,,---,0.00,VWS V14.01,2013-04-30 06:42:00,
2013-04-30 08:47:00,72.1,55.6,30.12,WNW,286,4.5,6.3,56,0.00,,---,0.00,VWS V14.01,2013-04-30 06:47:00,
2013-04-30 08:52:00,73.0,55.4,30.12,WNW,286,3.6,3.6,54,0.00,,---,0.00,VWS V14.01,2013-04-30 06:52:00,
2013-04-30 08:57:00,73.8,55.6,30.12,WNW,286,2.7,4.0,53,0.00,,---,0.00,VWS V14.01,2013-04-30 06:57:00,
2013-04-30 09:02:00,73.9,55.2,30.12,WNW,286,0.0,2.7,52,0.00,,---,0.00,VWS V14.01,2013-04-30 07:02:00,
2013-04-30 09:07:00,73.6,54.4,30.12,WNW,286,0.0,2.7,51,0.00,,---,0.00,VWS V14.01,2013-04-30 07:07:00,
2013-04-30 09:12:00,72.9,53.2,30.12,WNW,286,0.0,2.7,50,0.00,,---,0.00,VWS V14.01,2013-04-30 07:12:00,
2013-04-30 09:17:00,72.5,53.4,30.12,WNW,286,0.0,0.0,51,0.00,,---,0.00,VWS V14.01,2013-04-30 07:17:00,
2013-04-30 09:22:00,72.9,53.7,30.12,WNW,285,3.1,3.1,51,0.00,,---,0.00,VWS V14.01,2013-04-30 07:22:00,
2013-04-30 09:27:00,73.8,54.5,30.12,WNW,285,3.1,3.1,51,0.00,,---,0.00,VWS V14.01,2013-04-30 07:27:00,
2013-04-30 09:32:00,74.7,54.8,30.12,West,278,0.0,3.1,50,0.00,,---,0.00,VWS V14.01,2013-04-30 07:32:00,
2013-04-30 09:37:00,75.9,55.4,30.12,West,273,3.6,4.5,49,0.00,,---,0.00,VWS V14.01,2013-04-30 07:37:00,
2013-04-30 09:42:00,77.0,55.8,30.12,West,273,3.1,4.5,48,0.00,,---,0.00,VWS V14.01,2013-04-30 07:42:00,
2013-04-30 09:47:00,76.8,55.1,30.12,WNW,282,0.0,0.0,47,0.00,,---,0.00,VWS V14.01,2013-04-30 07:47:00,
2013-04-30 09:52:00,76.6,54.9,30.12,West,279,3.6,4.5,47,0.00,,---,0.00,VWS V14.01,2013-04-30 07:52:00,
2013-04-30 09:57:00,77.0,55.8,30.12,West,279,3.6,4.5,48,0.00,,---,0.00,VWS V14.01,2013-04-30 07:57:00,
2013-04-30 10:02:00,77.2,55.4,30.12,South,190,0.0,3.6,47,0.00,,---,0.00,VWS V14.01,2013-04-30 08:02:00,
2013-04-30 10:07:00,76.6,54.9,30.12,WSW,239,2.7,4.0,47,0.00,,---,0.00,VWS V14.01,2013-04-30 08:07:00,
2013-04-30 10:12:00,76.1,55.0,30.12,SW,219,0.0,3.6,48,0.00,,---,0.00,VWS V14.01,2013-04-30 08:12:00,
2013-04-30 10:17:00,75.9,55.4,30.12,SW,219,0.0,3.6,49,0.00,,---,0.00,VWS V14.01,2013-04-30 08:17:00,
2013-04-30 10:22:00,75.7,55.2,30.12,SSE,167,0.0,2.7,49,0.00,,---,0.00,VWS V14.01,2013-04-30 08:22:00,
2013-04-30 10:27:00,75.7,55.8,30.12,WSW,243,0.0,4.5,50,0.00,,---,0.00,VWS V14.01,2013-04-30 08:27:00,
2013-04-30 10:32:00,76.5,55.9,30.12,WNW,283,4.0,4.9,49,0.00,,---,0.00,VWS V14.01,2013-04-30 08:32:00,
2013-04-30 10:37:00,77.0,55.8,30.12,WNW,283,0.0,3.6,48,0.00,,---,0.00,VWS V14.01,2013-04-30 08:37:00,
2013-04-30 10:42:00,77.0,55.2,30.12,SW,228,2.7,3.1,47,0.00,,---,0.00,VWS V14.01,2013-04-30 08:42:00,
2013-04-30 10:47:00,76.8,55.1,30.12,SW,228,0.0,0.0,47,0.00,,---,0.00,VWS V14.01,2013-04-30 08:47:00,
2013-04-30 10:52:00,77.4,56.2,30.12,WSW,254,4.5,4.9,48,0.00,,---,0.00,VWS V14.01,2013-04-30 08:52:00,
2013-04-30 10:57:00,78.4,56.0,30.09,WNW,287,3.1,4.9,46,0.00,,---,0.00,VWS V14.01,2013-04-30 08:57:00,
2013-04-30 11:02:00,78.8,55.7,30.09,WSW,244,3.6,3.6,45,0.00,,---,0.00,VWS V14.01,2013-04-30 09:02:00,
2013-04-30 11:07:00,78.4,55.4,30.09,SW,219,3.6,4.0,45,0.00,,---,0.00,VWS V14.01,2013-04-30 09:07:00,
2013-04-30 11:12:00,78.3,55.2,30.09,WNW,284,5.8,6.7,45,0.00,,---,0.00,VWS V14.01,2013-04-30 09:12:00,
2013-04-30 11:17:00,78.6,55.5,30.09,WSW,248,3.1,5.4,45,0.00,,---,0.00,VWS V14.01,2013-04-30 09:17:00,
2013-04-30 11:22:00,78.8,55.7,30.09,West,279,0.0,4.9,45,0.00,,---,0.00,VWS V14.01,2013-04-30 09:22:00,
2013-04-30 11:27:00,78.8,55.7,30.09,NNW,329,4.0,5.8,45,0.00,,---,0.00,VWS V14.01,2013-04-30 09:27:00,
2013-04-30 11:32:00,79.2,56.0,30.09,WNW,297,3.6,6.3,45,0.00,,---,0.00,VWS V14.01,2013-04-30 09:32:00,
2013-04-30 11:37:00,79.5,56.3,30.09,West,271,6.7,6.9,45,0.00,,---,0.00,VWS V14.01,2013-04-30 09:37:00,
2013-04-30 11:42:00,80.2,56.4,30.09,WNW,287,8.3,8.3,44,0.00,,---,0.00,VWS V14.01,2013-04-30 09:42:00,
2013-04-30 11:47:00,80.8,56.2,30.09,West,277,7.4,7.4,43,0.00,,---,0.00,VWS V14.01,2013-04-30 09:47:00,
2013-04-30 11:52:00,81.0,55.7,30.09,WNW,289,6.3,6.3,42,0.00,,---,0.00,VWS V14.01,2013-04-30 09:52:00,
2013-04-30 11:57:00,81.1,55.2,30.09,WNW,291,4.0,4.5,41,0.00,,---,0.00,VWS V14.01,2013-04-30 09:57:00,
2013-04-30 12:02:00,81.1,55.9,30.09,WNW,292,6.9,6.9,42,0.00,,---,0.00,VWS V14.01,2013-04-30 10:02:00,
2013-04-30 12:07:00,81.5,55.5,30.09,WNW,285,4.0,5.4,41,0.00,,---,0.00,VWS V14.01,2013-04-30 10:07:00,
2013-04-30 12:12:00,81.9,55.9,30.09,WNW,291,0.0,4.5,41,0.00,,---,0.00,VWS V14.01,2013-04-30 10:12:00,
2013-04-30 12:17:00,82.0,56.0,30.09,WNW,283,4.5,5.8,41,0.00,,---,0.00,VWS V14.01,2013-04-30 10:17:00,
2013-04-30 12:22:00,82.4,56.4,30.09,WNW,287,4.9,6.9,41,0.00,,---,0.00,VWS V14.01,2013-04-30 10:22:00,
2013-04-30 12:27:00,82.9,56.2,30.09,SW,226,2.7,4.9,40,0.00,,---,0.00,VWS V14.01,2013-04-30 10:27:00,
2013-04-30 12:32:00,82.6,55.8,30.09,West,273,2.7,6.3,40,0.00,,---,0.00,VWS V14.01,2013-04-30 10:32:00,
2013-04-30 12:37:00,82.6,55.1,30.09,West,262,3.1,4.0,39,0.00,,---,0.00,VWS V14.01,2013-04-30 10:37:00,
2013-04-30 12:42:00,82.8,54.6,30.09,WNW,286,4.5,4.5,38,0.00,,---,0.00,VWS V14.01,2013-04-30 10:42:00,
2013-04-30 12:47:00,82.8,53.9,30.09,West,270,2.7,4.5,37,0.00,,---,0.00,VWS V14.01,2013-04-30 10:47:00,
2013-04-30 12:52:00,82.9,54.0,30.09,West,276,0.0,4.5,37,0.00,,---,0.00,VWS V14.01,2013-04-30 10:52:00,
2013-04-30 12:57:00,83.1,53.4,30.09,SW,225,0.0,2.7,36,0.00,,---,0.00,VWS V14.01,2013-04-30 10:57:00,
2013-04-30 13:02:00,83.1,51.9,30.09,West,274,0.0,0.0,34,0.00,,---,0.00,VWS V14.01,2013-04-30 11:02:00,
2013-04-30 13:07:00,83.1,51.9,30.09,West,270,4.9,4.9,34,0.00,,---,0.00,VWS V14.01,2013-04-30 11:07:00,
2013-04-30 13:12:00,83.3,53.6,30.06,West,276,4.0,6.7,36,0.00,,---,0.00,VWS V14.01,2013-04-30 11:12:00,
2013-04-30 13:17:00,83.8,54.1,30.06,West,276,4.5,4.5,36,0.00,,---,0.00,VWS V14.01,2013-04-30 11:17:00,
2013-04-30 13:22:00,84.0,53.5,30.06,West,278,6.3,6.9,35,0.00,,---,0.00,VWS V14.01,2013-04-30 11:22:00,
2013-04-30 13:27:00,84.2,53.6,30.06,West,279,5.8,6.9,35,0.00,,---,0.00,VWS V14.01,2013-04-30 11:27:00,
2013-04-30 13:32:00,84.6,53.9,30.06,WNW,282,5.8,7.4,35,0.00,,---,0.00,VWS V14.01,2013-04-30 11:32:00,
2013-04-30 13:37:00,84.6,53.1,30.06,WNW,293,5.8,5.8,34,0.00,,---,0.00,VWS V14.01,2013-04-30 11:37:00,
2013-04-30 13:42:00,84.6,53.1,30.06,West,274,2.7,4.9,34,0.00,,---,0.00,VWS V14.01,2013-04-30 11:42:00,
2013-04-30 13:47:00,84.7,53.3,30.06,WNW,287,5.8,6.9,34,0.00,,---,0.00,VWS V14.01,2013-04-30 11:47:00,
2013-04-30 13:52:00,84.9,53.5,30.06,West,274,6.3,6.7,34,0.00,,---,0.00,VWS V14.01,2013-04-30 11:52:00,
2013-04-30 13:57:00,85.1,52.8,30.06,WNW,286,5.8,6.3,33,0.00,,---,0.00,VWS V14.01,2013-04-30 11:57:00,
2013-04-30 14:02:00,84.4,52.2,30.06,WNW,299,4.5,4.5,33,0.00,,---,0.00,VWS V14.01,2013-04-30 12:02:00,
2013-04-30 14:07:00,84.0,52.7,30.06,West,281,3.6,4.0,34,0.00,,---,0.00,VWS V14.01,2013-04-30 12:07:00,
2013-04-30 14:12:00,83.7,51.5,30.06,West,273,2.7,4.0,33,0.00,,---,0.00,VWS V14.01,2013-04-30 12:12:00,
2013-04-30 14:17:00,83.3,51.2,30.06,West,276,0.0,0.0,33,0.00,,---,0.00,VWS V14.01,2013-04-30 12:17:00,
2013-04-30 14:22:00,83.5,50.5,30.06,SW,232,4.0,4.0,32,0.00,,---,0.00,VWS V14.01,2013-04-30 12:22:00,
2013-04-30 14:27:00,83.7,50.7,30.06,SSE,160,0.0,4.9,32,0.00,,---,0.00,VWS V14.01,2013-04-30 12:27:00,
2013-04-30 14:32:00,83.7,49.8,30.06,SSE,160,0.0,2.7,31,0.00,,---,0.00,VWS V14.01,2013-04-30 12:32:00,
2013-04-30 14:37:00,84.0,50.2,30.06,SSE,160,0.0,2.7,31,0.00,,---,0.00,VWS V14.01,2013-04-30 12:37:00,
2013-04-30 14:42:00,84.4,49.6,30.03,SSE,157,3.6,5.4,30,0.00,,---,0.00,VWS V14.01,2013-04-30 12:42:00,
2013-04-30 14:47:00,84.7,49.9,30.03,ESE,114,0.0,3.1,30,0.00,,---,0.00,VWS V14.01,2013-04-30 12:47:00,
2013-04-30 14:52:00,84.7,49.0,30.03,SE,135,0.0,2.7,29,0.00,,---,0.00,VWS V14.01,2013-04-30 12:52:00,
2013-04-30 14:57:00,84.7,49.0,30.03,ESE,119,0.0,3.1,29,0.00,,---,0.00,VWS V14.01,2013-04-30 12:57:00,
2013-04-30 15:02:00,84.6,48.8,30.03,ESE,120,0.0,3.6,29,0.00,,---,0.00,VWS V14.01,2013-04-30 13:02:00,
2013-04-30 15:07:00,84.4,48.7,30.03,West,270,4.5,4.9,29,0.00,,---,0.00,VWS V14.01,2013-04-30 13:07:00,
2013-04-30 15:12:00,84.4,48.7,30.03,West,264,0.0,4.0,29,0.00,,---,0.00,VWS V14.01,2013-04-30 13:12:00,
2013-04-30 15:17:00,84.6,48.8,30.03,South,184,2.7,3.6,29,0.00,,---,0.00,VWS V14.01,2013-04-30 13:17:00,
2013-04-30 15:22:00,84.7,49.0,30.03,South,184,0.0,2.7,29,0.00,,---,0.00,VWS V14.01,2013-04-30 13:22:00,
2013-04-30 15:27:00,84.7,49.0,30.03,South,171,5.4,5.8,29,0.00,,---,0.00,VWS V14.01,2013-04-30 13:27:00,
2013-04-30 15:32:00,84.6,48.8,30.03,South,174,0.0,3.6,29,0.00,,---,0.00,VWS V14.01,2013-04-30 13:32:00,
2013-04-30 15:37:00,84.7,49.0,30.03,South,185,0.0,3.1,29,0.00,,---,0.00,VWS V14.01,2013-04-30 13:37:00,
2013-04-30 15:42:00,84.6,48.8,30.03,South,169,3.1,4.9,29,0.00,,---,0.00,VWS V14.01,2013-04-30 13:42:00,
2013-04-30 15:47:00,84.2,48.5,30.03,South,173,2.7,3.1,29,0.00,,---,0.00,VWS V14.01,2013-04-30 13:47:00,
2013-04-30 15:52:00,84.2,48.5,30.03,South,173,0.0,0.0,29,0.00,,---,0.00,VWS V14.01,2013-04-30 13:52:00,
2013-04-30 15:57:00,84.4,48.7,30.00,South,173,0.0,3.1,29,0.00,,---,0.00,VWS V14.01,2013-04-30 13:57:00,
2013-04-30 16:02:00,84.6,48.8,30.00,SSE,149,3.6,4.5,29,0.00,,---,0.00,VWS V14.01,2013-04-30 14:02:00,
2013-04-30 16:07:00,84.6,48.8,30.00,SSE,167,2.7,3.1,29,0.00,,---,0.00,VWS V14.01,2013-04-30 14:07:00,
2013-04-30 16:12:00,84.6,48.8,30.03,SSE,163,4.0,6.3,29,0.00,,---,0.00,VWS V14.01,2013-04-30 14:12:00,
2013-04-30 16:17:00,84.2,48.5,30.03,SSE,152,0.0,0.0,29,0.00,,---,0.00,VWS V14.01,2013-04-30 14:17:00,
2013-04-30 16:22:00,84.2,49.4,30.03,SSE,153,3.6,4.0,30,0.00,,---,0.00,VWS V14.01,2013-04-30 14:22:00,
2013-04-30 16:27:00,84.0,49.3,30.00,SSW,192,0.0,4.0,30,0.00,,---,0.00,VWS V14.01,2013-04-30 14:27:00,
2013-04-30 16:32:00,84.0,49.3,30.00,SSE,161,0.0,4.5,30,0.00,,---,0.00,VWS V14.01,2013-04-30 14:32:00,
2013-04-30 16:37:00,84.0,49.3,30.00,ENE,57,0.0,3.6,30,0.00,,---,0.00,VWS V14.01,2013-04-30 14:37:00,
2013-04-30 16:42:00,84.0,49.3,30.00,ESE,119,3.6,4.5,30,0.00,,---,0.00,VWS V14.01,2013-04-30 14:42:00,
2013-04-30 16:47:00,84.2,49.4,30.00,SSE,149,4.5,5.4,30,0.00,,---,0.00,VWS V14.01,2013-04-30 14:47:00,
2013-04-30 16:52:00,84.0,49.3,30.00,SSE,147,2.7,4.0,30,0.00,,---,0.00,VWS V14.01,2013-04-30 14:52:00,
2013-04-30 16:57:00,84.0,50.2,30.00,SE,146,0.0,2.7,31,0.00,,---,0.00,VWS V14.01,2013-04-30 14:57:00,
2013-04-30 17:02:00,83.8,50.0,30.00,SE,136,0.0,4.0,31,0.00,,---,0.00,VWS V14.01,2013-04-30 15:02:00,
2013-04-30 17:07:00,83.7,49.0,30.00,SSE,154,4.5,4.9,30,0.00,,---,0.00,VWS V14.01,2013-04-30 15:07:00,
2013-04-30 17:12:00,83.3,48.7,30.00,SSE,162,2.7,3.6,30,0.00,,---,0.00,VWS V14.01,2013-04-30 15:12:00,
2013-04-30 17:17:00,83.3,49.5,30.00,SE,133,0.0,2.7,31,0.00,,---,0.00,VWS V14.01,2013-04-30 15:17:00,
2013-04-30 17:22:00,83.1,49.4,30.00,SE,137,0.0,3.6,31,0.00,,---,0.00,VWS V14.01,2013-04-30 15:22:00,
2013-04-30 17:27:00,82.9,49.2,30.00,SE,137,0.0,2.7,31,0.00,,---,0.00,VWS V14.01,2013-04-30 15:27:00,
2013-04-30 17:32:00,82.8,49.9,30.00,SE,139,0.0,3.6,32,0.00,,---,0.00,VWS V14.01,2013-04-30 15:32:00,
2013-04-30 17:37:00,82.4,50.4,30.00,SE,139,0.0,2.7,33,0.00,,---,0.00,VWS V14.01,2013-04-30 15:37:00,
2013-04-30 17:42:00,82.0,50.1,30.00,South,184,2.7,3.6,33,0.00,,---,0.00,VWS V14.01,2013-04-30 15:42:00,
2013-04-30 17:47:00,81.9,50.8,30.00,SSE,155,0.0,2.7,34,0.00,,---,0.00,VWS V14.01,2013-04-30 15:47:00,
2013-04-30 17:52:00,81.7,51.4,30.00,SSE,155,0.0,3.1,35,0.00,,---,0.00,VWS V14.01,2013-04-30 15:52:00,
2013-04-30 17:57:00,81.5,52.0,30.00,SSE,155,3.6,3.6,36,0.00,,---,0.00,VWS V14.01,2013-04-30 15:57:00,
2013-04-30 18:02:00,81.1,51.7,30.00,NNW,341,0.0,4.0,36,0.00,,---,0.00,VWS V14.01,2013-04-30 16:02:00,
2013-04-30 18:07:00,81.0,50.8,30.00,NNE,24,4.0,4.0,35,0.00,,---,0.00,VWS V14.01,2013-04-30 16:07:00,
2013-04-30 18:12:00,80.8,50.6,30.00,NE,34,3.6,3.6,35,0.00,,---,0.00,VWS V14.01,2013-04-30 16:12:00,
2013-04-30 18:17:00,80.6,49.7,30.00,SE,133,3.6,4.9,34,0.00,,---,0.00,VWS V14.01,2013-04-30 16:17:00,
2013-04-30 18:22:00,80.4,47.9,30.00,SE,139,0.0,4.9,32,0.00,,---,0.00,VWS V14.01,2013-04-30 16:22:00,
2013-04-30 18:27:00,80.2,46.9,30.00,SE,143,0.0,2.7,31,0.00,,---,0.00,VWS V14.01,2013-04-30 16:27:00,
2013-04-30 18:32:00,80.1,46.7,30.00,SSE,147,4.5,4.5,31,0.00,,---,0.00,VWS V14.01,2013-04-30 16:32:00,
2013-04-30 18:37:00,79.9,45.7,30.00,SSE,147,0.0,2.7,30,0.00,,---,0.00,VWS V14.01,2013-04-30 16:37:00,
2013-04-30 18:42:00,79.7,45.6,30.00,SSE,147,0.0,2.7,30,0.00,,---,0.00,VWS V14.01,2013-04-30 16:42:00,
2013-04-30 18:47:00,79.7,45.6,30.00,SSE,148,3.1,4.0,30,0.00,,---,0.00,VWS V14.01,2013-04-30 16:47:00,
2013-04-30 18:52:00,79.5,45.4,30.00,SSE,148,3.1,3.1,30,0.00,,---,0.00,VWS V14.01,2013-04-30 16:52:00,
2013-04-30 18:57:00,79.3,45.2,30.00,SSE,148,0.0,2.7,30,0.00,,---,0.00,VWS V14.01,2013-04-30 16:57:00,
2013-04-30 19:02:00,79.2,45.1,30.00,SSE,148,0.0,3.1,30,0.00,,---,0.00,VWS V14.01,2013-04-30 17:02:00,
2013-04-30 19:07:00,79.0,44.9,30.00,SSE,148,0.0,3.1,30,0.00,,---,0.00,VWS V14.01,2013-04-30 17:07:00,
2013-04-30 19:12:00,78.8,44.8,30.00,SSE,148,0.0,0.0,30,0.00,,---,0.00,VWS V14.01,2013-04-30 17:12:00,
2013-04-30 19:17:00,78.6,44.6,30.00,SSE,148,0.0,0.0,30,0.00,,---,0.00,VWS V14.01,2013-04-30 17:17:00,
2013-04-30 19:22:00,78.4,44.5,30.00,SSE,148,0.0,0.0,30,0.00,,---,0.00,VWS V14.01,2013-04-30 17:22:00,
2013-04-30 19:27:00,78.3,44.3,30.00,SSE,148,0.0,0.0,30,0.00,,---,0.00,VWS V14.01,2013-04-30 17:27:00,
2013-04-30 19:32:00,78.1,45.0,30.00,SSE,148,0.0,0.0,31,0.00,,---,0.00,VWS V14.01,2013-04-30 17:32:00,
2013-04-30 19:37:00,77.9,44.9,30.00,SSE,148,0.0,0.0,31,0.00,,---,0.00,VWS V14.01,2013-04-30 17:37:00,
2013-04-30 19:42:00,77.7,44.7,30.00,SSE,148,0.0,0.0,31,0.00,,---,0.00,VWS V14.01,2013-04-30 17:42:00,
2013-04-30 19:47:00,77.5,44.5,30.00,SSE,148,0.0,0.0,31,0.00,,---,0.00,VWS V14.01,2013-04-30 17:47:00,
2013-04-30 19:52:00,77.4,44.4,30.00,SSE,148,0.0,0.0,31,0.00,,---,0.00,VWS V14.01,2013-04-30 17:52:00,
2013-04-30 19:57:00,77.2,45.1,30.00,SSE,148,3.1,3.1,32,0.00,,---,0.00,VWS V14.01,2013-04-30 17:57:00,
2013-04-30 20:02:00,77.0,44.9,30.00,SSE,148,0.0,0.0,32,0.00,,---,0.00,VWS V14.01,2013-04-30 18:02:00,
2013-04-30 20:07:00,76.8,44.8,30.00,SSE,148,0.0,0.0,32,0.00,,---,0.00,VWS V14.01,2013-04-30 18:07:00,
2013-04-30 20:12:00,76.6,44.6,30.00,SSE,148,0.0,0.0,32,0.00,,---,0.00,VWS V14.01,2013-04-30 18:12:00,
2013-04-30 20:17:00,76.5,44.4,30.00,SSE,148,0.0,0.0,32,0.00,,---,0.00,VWS V14.01,2013-04-30 18:17:00,
2013-04-30 20:22:00,76.1,44.1,30.00,SSE,148,0.0,0.0,32,0.00,,---,0.00,VWS V14.01,2013-04-30 18:22:00,
2013-04-30 20:27:00,75.9,44.8,30.00,SSE,148,0.0,0.0,33,0.00,,---,0.00,VWS V14.01,2013-04-30 18:27:00,
2013-04-30 20:32:00,75.7,44.6,30.00,SSE,148,0.0,0.0,33,0.00,,---,0.00,VWS V14.01,2013-04-30 18:32:00,
2013-04-30 20:37:00,75.4,45.1,30.00,SSE,148,0.0,0.0,34,0.00,,---,0.00,VWS V14.01,2013-04-30 18:37:00,
2013-04-30 20:42:00,75.2,45.7,30.00,SSE,148,0.0,0.0,35,0.00,,---,0.00,VWS V14.01,2013-04-30 18:42:00,
2013-04-30 20:47:00,74.8,45.4,30.00,SSE,148,0.0,0.0,35,0.00,,---,0.00,VWS V14.01,2013-04-30 18:47:00,
2013-04-30 20:52:00,74.5,45.8,30.00,SSE,148,0.0,0.0,36,0.00,,---,0.00,VWS V14.01,2013-04-30 18:52:00,
2013-04-30 20:57:00,74.1,46.2,30.00,SSE,148,3.1,3.1,37,0.00,,---,0.00,VWS V14.01,2013-04-30 18:57:00,
2013-04-30 21:01:00,73.9,46.8,30.00,SSE,148,0.0,0.0,38,0.00,,---,0.00,VWS V14.01,2013-04-30 19:01:00,
2013-04-30 21:06:00,73.8,47.3,30.00,SSE,148,0.0,0.0,39,0.00,,---,0.00,VWS V14.01,2013-04-30 19:06:00,
2013-04-30 21:11:00,73.6,47.8,30.03,SSE,148,0.0,3.1,40,0.00,,---,0.00,VWS V14.01,2013-04-30 19:11:00,
2013-04-30 21:17:00,73.4,47.6,30.03,SSE,149,3.1,4.0,40,0.00,,---,0.00,VWS V14.01,2013-04-30 19:17:00,
2013-04-30 21:22:00,73.2,48.1,30.03,SSE,149,3.1,4.0,41,0.00,,---,0.00,VWS V14.01,2013-04-30 19:22:00,
2013-04-30 21:26:00,72.9,47.8,30.03,SSE,153,2.7,3.1,41,0.00,,---,0.00,VWS V14.01,2013-04-30 19:26:00,
2013-04-30 21:31:00,72.7,48.3,30.03,SSE,153,0.0,0.0,42,0.00,,---,0.00,VWS V14.01,2013-04-30 19:31:00,
2013-04-30 21:37:00,72.7,48.3,30.03,SSE,153,0.0,2.7,42,0.00,,---,0.00,VWS V14.01,2013-04-30 19:37:00,
2013-04-30 21:41:00,73.2,48.8,30.03,SSE,153,0.0,2.7,42,0.00,,---,0.00,VWS V14.01,2013-04-30 19:41:00,
2013-04-30 21:46:00,73.8,48.6,30.03,SSE,155,0.0,3.6,41,0.00,,---,0.00,VWS V14.01,2013-04-30 19:46:00,
2013-04-30 21:52:00,74.1,48.9,30.03,SSE,150,2.7,3.1,41,0.00,,---,0.00,VWS V14.01,2013-04-30 19:52:00,
2013-04-30 21:57:00,74.3,48.4,30.03,SSE,151,0.0,3.1,40,0.00,,---,0.00,VWS V14.01,2013-04-30 19:57:00,
2013-04-30 22:02:00,74.5,47.9,30.03,SSE,151,0.0,0.0,39,0.00,,---,0.00,VWS V14.01,2013-04-30 20:02:00,
2013-04-30 22:07:00,74.5,47.9,30.03,SSE,153,3.1,3.1,39,0.00,,---,0.00,VWS V14.01,2013-04-30 20:07:00,
2013-04-30 22:12:00,74.5,47.9,30.03,SSE,160,0.0,4.5,39,0.00,,---,0.00,VWS V14.01,2013-04-30 20:12:00,
2013-04-30 22:17:00,74.3,47.8,30.03,SSE,167,2.7,4.0,39,0.00,,---,0.00,VWS V14.01,2013-04-30 20:17:00,
2013-04-30 22:22:00,74.1,48.3,30.03,SSE,168,0.0,3.6,40,0.00,,---,0.00,VWS V14.01,2013-04-30 20:22:00,
2013-04-30 22:27:00,74.1,48.3,30.03,SSE,168,0.0,2.7,40,0.00,,---,0.00,VWS V14.01,2013-04-30 20:27:00,
2013-04-30 22:32:00,73.9,48.8,30.03,South,169,0.0,3.6,41,0.00,,---,0.00,VWS V14.01,2013-04-30 20:32:00,
2013-04-30 22:37:00,73.8,48.6,30.03,South,169,0.0,3.1,41,0.00,,---,0.00,VWS V14.01,2013-04-30 20:37:00,
2013-04-30 22:41:00,73.8,48.6,30.03,South,177,0.0,3.6,41,0.00,,---,0.00,VWS V14.01,2013-04-30 20:41:00,
2013-04-30 22:47:00,73.8,48.6,30.03,South,177,2.7,3.6,41,0.00,,---,0.00,VWS V14.01,2013-04-30 20:47:00,
2013-04-30 22:52:00,73.8,48.0,30.03,South,169,3.6,3.6,40,0.00,,---,0.00,VWS V14.01,2013-04-30 20:52:00,
2013-04-30 22:56:00,73.8,48.0,30.03,South,170,2.7,3.1,40,0.00,,---,0.00,VWS V14.01,2013-04-30 20:56:00,
2013-04-30 23:01:00,73.6,48.5,30.03,South,170,3.6,4.5,41,0.00,,---,0.00,VWS V14.01,2013-04-30 21:01:00,
2013-04-30 23:06:00,73.4,48.3,30.03,South,171,3.6,4.0,41,0.00,,---,0.00,VWS V14.01,2013-04-30 21:06:00,
2013-04-30 23:11:00,73.2,48.1,30.03,South,176,4.5,4.9,41,0.00,,---,0.00,VWS V14.01,2013-04-30 21:11:00,
2013-04-30 23:17:00,73.0,48.0,30.03,South,174,2.7,4.9,41,0.00,,---,0.00,VWS V14.01,2013-04-30 21:17:00,
2013-04-30 23:22:00,73.0,48.0,30.03,South,173,3.1,4.0,41,0.00,,---,0.00,VWS V14.01,2013-04-30 21:22:00,
2013-04-30 23:27:00,72.9,47.8,30.03,South,173,3.6,4.0,41,0.00,,---,0.00,VWS V14.01,2013-04-30 21:27:00,
2013-04-30 23:32:00,72.7,48.3,30.03,South,174,0.0,2.7,42,0.00,,---,0.00,VWS V14.01,2013-04-30 21:32:00,
2013-04-30 23:37:00,72.7,48.3,30.03,South,174,2.7,4.0,42,0.00,,---,0.00,VWS V14.01,2013-04-30 21:37:00,
2013-04-30 23:42:00,72.3,48.0,30.03,South,174,2.7,3.6,42,0.00,,---,0.00,VWS V14.01,2013-04-30 21:42:00,
2013-04-30 23:46:00,72.1,48.4,30.03,South,174,0.0,3.6,43,0.00,,---,0.00,VWS V14.01,2013-04-30 21:46:00,
2013-04-30 23:51:00,72.0,48.3,30.03,South,174,3.1,5.4,43,0.00,,---,0.00,VWS V14.01,2013-04-30 21:51:00,
2013-04-30 23:57:00,71.8,48.1,30.03,South,174,3.1,4.5,43,0.00,,---,0.00,VWS V14.01,2013-04-30 21:57:00,